sat.trackr.live / text

‹ back to catalog

2026-106A

NORAD 69097 · 2026-106A

PAYLOAD ACTIVE UNKNOWN

§ Identity

Operator
Country
PRC
Launch date
2026-05-15
Launch site
JSC
Launch vehicle
Mass (kg)
RCS (m²)

External: N2YO · Heavens-Above · Gunter

§ Orbital elements

Epoch: 2026-05-15T21:29:31.389216Z

Period
95.31 min
Inclination
97.5094°
Eccentricity
0.0012926
Mean motion
15.10801700 rev/d
Perigee alt
524.8 km
Apogee alt
542.7 km
Semi-major
6,911.9 km
B*
3.3805e-5
RAAN
218.5703°
Arg perigee
275.6985°
Mean anomaly
84.2771°
Rev number
11

§ Raw data

2026-106A1 69097U 26106A   26135.89550219  .00000498  00000+0  33805-4 0  99952 69097  97.5094 218.5703 0012926 275.6985  84.2771 15.10801700   119

JSON: /api/v1/satellites/69097 · /tle

For live sub-satellite position, see the globe view (requires WebGL).

§ Visibility from observer

Set your observer location to see the next 7 days of passes ≥ 10°. The values pass through the URL so the page stays shareable.

No JS? Fill the form by hand. The geolocation button needs JavaScript.